McConnell AFB, KS

9:18 PM CST on December 15, 2019 (GMT -0600)
McConnell Air Force Base

Weather History for KIAB - September, 2019

Change the Weather History Date:

Wednesday, September 18, 2019

  Actual Average Record
Temperature  
Mean Temperature 80 °F -  
Max Temperature 90 °F 78 °F 98 °F (1997)
Min Temperature 71 °F 58 °F 46 °F (2006)
Cooling Degree Days 16    
Growing Degree Days 30 (Base 50)    
Moisture  
Dew Point 65 °F    
Average Humidity 61    
Maximum Humidity 81    
Minimum Humidity 39    
Precipitation  
Precipitation 0.00 in - - ()
Sea Level Pressure  
Sea Level Pressure 29.93 in    
Wind  
Wind Speed 12 mph (SE)    
Max Wind Speed 22 mph    
Max Gust Speed 32 mph    
Visibility 10 miles    
Events      
Averages and records for this station are not official NWS values.
T = Trace of Precipitation, MM = Missing Value Source: NWS Daily Summary

Daily Weather History Graph

Daily Weather History Graph

Search for Another Location

Airport or City:

Astronomy

Sep. 18, 2019 Rise Set
Actual Time 7:13 AM CDT 7:32 PM CDT
Civil Twilight 6:47 AM CDT 7:58 PM CDT
Nautical Twilight 6:16 AM CDT 8:29 PM CDT
Astronomical Twilight 5:45 AM CDT 9:00 PM CDT
Moon 10:12 PM CDT (9/18) 11:13 AM CDT (9/18)
Length of Visible Light 13h 11m
Length of Day
12h 19m
Waning Gibbous, 82% of the Moon is Illuminated
Sep 18
Waning Gibbous
Sep 21
Last Quarter
Sep 28
New
Oct 5
First Quarter
Oct 13
Full

Hourly Weather History & Observations

Time (CDT) Temp. Heat Index Dew Point Humidity Pressure Visibility Wind Dir Wind Speed Gust Speed Precip Events Conditions
12:56 AM 73.8 °F - 65.3 °F 75% 29.92 in 10.0 mi ESE 10.4 mph - N/A   Clear
1:56 AM 73.6 °F - 65.5 °F 76% 29.93 in 10.0 mi ESE 10.4 mph - N/A   Clear
2:56 AM 73.8 °F - 65.7 °F 76% 29.91 in 10.0 mi ESE 11.5 mph - N/A   Clear
3:56 AM 72.7 °F - 65.7 °F 79% 29.91 in 10.0 mi ESE 9.2 mph - N/A   Clear
4:56 AM 72.5 °F - 65.7 °F 79% 29.91 in 10.0 mi SE 8.1 mph - N/A   Clear
5:56 AM 71.8 °F - 65.3 °F 80% 29.92 in 10.0 mi ESE 6.9 mph - N/A   Clear
6:56 AM 71.2 °F - 65.1 °F 81% 29.94 in 10.0 mi ESE 6.9 mph - N/A   Clear
8:56 AM 76.8 °F - 64.9 °F 67% 29.95 in 10.0 mi SE 13.8 mph - N/A   Clear
9:56 AM 79.9 °F - 65.1 °F 61% 29.95 in 10.0 mi SSE 15.0 mph - N/A   Clear
10:56 AM 84.0 °F 86.0 °F 65.5 °F 54% 29.96 in 10.0 mi SSE 15.0 mph - N/A   Clear
11:56 AM 87.1 °F 88.0 °F 63.7 °F 45% 29.96 in 10.0 mi SE 20.7 mph 25.3 mph N/A   Clear
12:56 PM 88.5 °F 90.1 °F 64.4 °F 45% 29.95 in 10.0 mi SE 21.9 mph 28.8 mph N/A   Clear
1:56 PM 89.8 °F 91.4 °F 64.2 °F 43% 29.93 in 10.0 mi SE 18.4 mph 32.2 mph N/A   Clear
2:56 PM 90.1 °F 91.6 °F 63.9 °F 42% 29.91 in 10.0 mi ESE 19.6 mph 25.3 mph N/A   Clear
3:56 PM 90.5 °F 91.1 °F 62.1 °F 39% 29.89 in 10.0 mi SE 20.7 mph - N/A   Clear
4:56 PM 90.0 °F 91.0 °F 63.7 °F 41% 29.90 in 10.0 mi SE 17.3 mph - N/A   Clear
5:56 PM 88.7 °F 89.8 °F 63.9 °F 43% 29.90 in 10.0 mi ESE 12.7 mph - N/A   Clear
6:56 PM 86.0 °F 87.6 °F 64.6 °F 49% 29.91 in 10.0 mi ESE 11.5 mph - N/A   Clear
7:56 PM 81.7 °F 83.5 °F 64.9 °F 57% 29.95 in 10.0 mi ESE 9.2 mph - N/A   Clear
8:56 PM 79.2 °F - 65.5 °F 63% 29.96 in 10.0 mi ESE 8.1 mph - N/A   Clear
9:56 PM 78.1 °F - 65.7 °F 65% 29.97 in 10.0 mi ESE 9.2 mph - N/A   Clear
10:56 PM 77.2 °F - 65.8 °F 68% 29.98 in 10.0 mi ESE 6.9 mph - N/A   Clear
11:56 PM 76.1 °F - 65.5 °F 70% 29.94 in 10.0 mi East 9.2 mph - N/A   Clear